This is the latest recevied weather packets stored in our database for station/object K5OBH. If no packets are shown the sender has not sent any weather packets the latest 10 day(s).
| Time | Temp. | Humidity | Pressure | Rain* | Wind** | Luminosity | Snow |
|---|---|---|---|---|---|---|---|
| 1777995735 | 15.56° C | 87% | 1003.8 hPa | 0 mm | - | 90 W/m² | - |
| 1777995432 | 15.56° C | 87% | 1003.7 hPa | 0 mm | - | 81 W/m² | - |
| 1777995129 | 16.11° C | 87% | 1003.3 hPa | 0 mm | - | 65 W/m² | - |
| 1777994826 | 16.11° C | 87% | 1003.7 hPa | 0 mm | - | 67 W/m² | - |
| 1777994522 | 16.67° C | 87% | 1003.2 hPa | 0 mm | - | 63 W/m² | - |
| 1777994217 | 16.67° C | 87% | 1003.2 hPa | 0 mm | - | 40 W/m² | - |
| 1777993915 | 17.22° C | 86% | 1003.1 hPa | 0 mm | - | 41 W/m² | - |
| 1777993611 | 20.56° C | 87% | 1003.1 hPa | 0 mm | - | 52 W/m² | - |
| 1777993309 | 20.56° C | 87% | 1002.6 hPa | 0 mm | - | 174 W/m² | - |
| 1777993003 | 20.56° C | 87% | 1002.6 hPa | 0 mm | - | 188 W/m² | - |
| 1777992702 | 20.56° C | 87% | 1002.3 hPa | 0 mm | - | 142 W/m² | - |
| 1777992400 | 21.67° C | 84% | 1002.2 hPa | 0 mm | - | 99 W/m² | - |
| 1777992097 | 21.67° C | 81% | 1002.2 hPa | 0 mm | - | 152 W/m² | - |
| 1777991794 | 21.67° C | 80% | 1002 hPa | 0 mm | - | 138 W/m² | - |
| 1777991491 | 21.67° C | 80% | 1001.7 hPa | 0 mm | - | 131 W/m² | - |
| 1777991188 | 21.11° C | 82% | 1001.9 hPa | 0 mm | - | 129 W/m² | - |
| 1777990886 | 21.11° C | 81% | 1001.8 hPa | 0 mm | - | 115 W/m² | - |
| 1777990584 | 21.67° C | 82% | 1001.7 hPa | 0 mm | - | 105 W/m² | - |
| 1777989977 | 21.67° C | 81% | 1001.8 hPa | 0 mm | - | 92 W/m² | - |
| 1777989674 | 21.11° C | 81% | 1001.7 hPa | 0 mm | - | 92 W/m² | - |
| 1777989369 | 21.67° C | 81% | 1001.7 hPa | 0 mm | - | 88 W/m² | - |
| 1777989066 | 21.11° C | 82% | 1001.4 hPa | 0 mm | - | 94 W/m² | - |
| 1777988762 | 21.11° C | 83% | 1001.6 hPa | 0 mm | - | 95 W/m² | - |
| 1777988460 | 21.11° C | 83% | 1001.4 hPa | 0 mm | - | 90 W/m² | - |
| 1777988156 | 21.11° C | 83% | 1001.4 hPa | 0 mm | - | 89 W/m² | - |
* Rain latest hour (hover to see other rain measurements)
** Current wind speed in m/s (hover to see current wind gust speed)